Glendive, MT

10:22 AM MDT on September 24, 2017 (GMT -0600)
Dawson Community

Weather History for KGDV - February, 2014

Change the Weather History Date:

Tuesday, February 11, 2014

  Actual Average Record
Temperature  
Mean Temperature 17 °F -  
Max Temperature 39 °F 30 °F 60 °F (2005)
Min Temperature -5 °F 12 °F -14 °F (2012)
Degree Days  
Heating Degree Days 48    
Moisture  
Dew Point 12 °F    
Average Humidity 76    
Maximum Humidity 100    
Minimum Humidity 60    
Precipitation  
Precipitation 0.00 in - - ()
Sea Level Pressure  
Sea Level Pressure 29.88 in    
Wind  
Wind Speed 11 mph (West)    
Max Wind Speed 20 mph    
Max Gust Speed 24 mph    
Visibility 9 miles    
Events      
Averages and records for this station are not official NWS values.
T = Trace of Precipitation, MM = Missing Value Source: NWS Daily Summary

Daily Weather History Graph

Daily Weather History Graph

Search for Another Location

Airport or City:

Trip Planner

Search our weather history database for the weather conditions in past years. The results will help you decide how hot, cold, wet, or windy it might be!

Date:

Astronomy

Feb. 11, 2014 Rise Set
Actual Time 7:10 AM MST 5:17 PM MST
Civil Twilight 6:38 AM MST 5:49 PM MST
Nautical Twilight 6:02 AM MST 6:25 PM MST
Astronomical Twilight 5:27 AM MST 7:00 PM MST
Moon 2:35 PM MST (2/11) 4:54 AM MST (2/11)
Length of Visible Light 11h 10m
Length of Day
10h 07m
Waxing Gibbous, 91% of the Moon is Illuminated
Feb 11
Waxing Gibbous
Feb 14
Full
Feb 22
Last Quarter
Mar 1
New
Mar 8
First Quarter

Hourly Weather History & Observations

Time (MST) Temp. Windchill Dew Point Humidity Pressure Visibility Wind Dir Wind Speed Gust Speed Precip Events Conditions
12:15 AM 6.8 °F -6.9 °F 1.4 °F 79% 29.93 in 10.0 mi South 9.2 mph - N/A   Clear
12:35 AM 6.8 °F -7.8 °F 1.4 °F 79% 29.91 in 10.0 mi South 10.4 mph - N/A   Clear
1:15 AM 6.8 °F -7.8 °F 5.0 °F 92% 29.88 in 10.0 mi South 10.4 mph - N/A   Clear
1:35 AM 8.6 °F -6.3 °F 3.2 °F 79% 29.87 in 10.0 mi SSW 11.5 mph - N/A   Clear
1:55 AM 8.6 °F -5.5 °F 6.8 °F 92% 29.86 in 10.0 mi SSW 10.4 mph - N/A   Clear
2:15 AM 10.4 °F -3.3 °F 6.8 °F 85% 29.86 in 10.0 mi SSW 10.4 mph - N/A   Clear
2:35 AM 10.4 °F -4.1 °F 8.6 °F 92% 29.84 in 10.0 mi South 11.5 mph - N/A   Clear
2:55 AM 12.2 °F -3.1 °F 8.6 °F 85% 29.83 in 10.0 mi South 13.8 mph - N/A   Mostly Cloudy
3:35 AM 15.8 °F 1.4 °F 12.2 °F 86% 29.81 in 10.0 mi South 13.8 mph - N/A   Overcast
3:55 AM 15.8 °F 3.4 °F 12.2 °F 86% 29.80 in 10.0 mi South 10.4 mph - N/A   Mostly Cloudy
4:15 AM 10.4 °F -4.8 °F 8.6 °F 92% 29.80 in 10.0 mi South 12.7 mph - N/A   Mostly Cloudy
4:35 AM 15.8 °F 0.9 °F 14.0 °F 93% 29.80 in 10.0 mi SSW 15.0 mph - N/A   Overcast
4:55 AM 17.6 °F 1.7 °F 12.2 °F 79% 29.79 in 10.0 mi SSW 18.4 mph - N/A   Mostly Cloudy
5:15 AM 19.4 °F 5.5 °F 14.0 °F 80% 29.78 in 10.0 mi SSW 15.0 mph - N/A   Mostly Cloudy
5:35 AM 21.2 °F 11.7 °F 17.6 °F 86% 29.79 in 10.0 mi South 8.1 mph - N/A   Scattered Clouds
5:55 AM 24.8 °F 12.9 °F 17.6 °F 74% 29.78 in 10.0 mi SSW 13.8 mph - N/A   Partly Cloudy
6:15 AM 24.8 °F 12.9 °F 15.8 °F 69% 29.77 in 10.0 mi SSW 13.8 mph - N/A   Partly Cloudy
6:35 AM 24.8 °F 14.6 °F 15.8 °F 69% 29.76 in 10.0 mi South 10.4 mph - N/A   Partly Cloudy
6:55 AM 17.6 °F 4.3 °F 6.8 °F 63% 29.76 in 10.0 mi South 12.7 mph - N/A   Scattered Clouds
7:15 AM 21.2 °F 10.9 °F 14.0 °F 74% 29.76 in 10.0 mi SSE 9.2 mph - N/A   Scattered Clouds
7:35 AM 21.2 °F 9.5 °F 15.8 °F 80% 29.75 in 10.0 mi SSE 11.5 mph - N/A   Partly Cloudy
7:55 AM 21.2 °F 9.5 °F 15.8 °F 80% 29.75 in 10.0 mi South 11.5 mph - N/A   Scattered Clouds
8:15 AM 23.0 °F 14.7 °F 12.2 °F 63% 29.76 in 10.0 mi South 6.9 mph - N/A   Mostly Cloudy
8:35 AM 23.0 °F 11.7 °F 14.0 °F 68% 29.75 in 10.0 mi South 11.5 mph - N/A   Scattered Clouds
8:55 AM 24.8 °F 15.3 °F 17.6 °F 74% 29.74 in 10.0 mi South 9.2 mph - N/A   Clear
9:15 AM 28.4 °F 19.7 °F 24.8 °F 86% 29.75 in 10.0 mi South 9.2 mph - N/A   Partly Cloudy
9:35 AM 33.8 °F 25.3 °F 26.6 °F 75% 29.76 in 10.0 mi WSW 11.5 mph - N/A   Mostly Cloudy
9:55 AM 37.4 °F 29.8 °F 28.4 °F 70% 29.76 in 10.0 mi West 11.5 mph - N/A   Scattered Clouds
10:15 AM 39.2 °F 33.0 °F 28.4 °F 65% 29.76 in 10.0 mi WSW 9.2 mph - N/A   Mostly Cloudy
10:35 AM 39.2 °F 33.0 °F 28.4 °F 65% 29.77 in 10.0 mi SW 9.2 mph - N/A   Overcast
10:55 AM 37.4 °F 30.3 °F 26.6 °F 65% 29.77 in 10.0 mi SW 10.4 mph - N/A   Partly Cloudy
11:15 AM 39.2 °F 33.0 °F 26.6 °F 61% 29.77 in 10.0 mi SW 9.2 mph - N/A   Partly Cloudy
11:35 AM 39.2 °F 32.0 °F 26.6 °F 61% 29.76 in 10.0 mi West 11.5 mph - N/A   Mostly Cloudy
11:55 AM 39.2 °F 33.0 °F 26.6 °F 61% 29.76 in 10.0 mi WNW 9.2 mph - N/A   Overcast
12:15 PM 37.4 °F 28.5 °F 24.8 °F 60% 29.75 in 10.0 mi NW 15.0 mph - N/A   Overcast
12:35 PM 37.4 °F 29.8 °F 24.8 °F 60% 29.74 in 10.0 mi WNW 11.5 mph - N/A   Mostly Cloudy
12:55 PM 37.4 °F 30.3 °F 24.8 °F 60% 29.75 in 10.0 mi NW 10.4 mph - N/A   Overcast
1:15 PM 37.4 °F 30.3 °F 24.8 °F 60% 29.74 in 10.0 mi NW 10.4 mph - N/A   Mostly Cloudy
1:35 PM 35.6 °F 28.6 °F 24.8 °F 65% 29.73 in 10.0 mi NNW 9.2 mph - N/A   Overcast
1:55 PM 35.6 °F 28.0 °F 24.8 °F 65% 29.74 in 10.0 mi NNW 10.4 mph - N/A   Overcast
2:15 PM 35.6 °F 30.7 °F 24.8 °F 65% 29.75 in 10.0 mi NNW 5.8 mph - N/A   Overcast
2:35 PM 33.8 °F 24.8 °F 24.8 °F 70% 29.77 in 8.0 mi North 12.7 mph - N/A   Overcast
2:55 PM 32.0 °F 22.5 °F 24.8 °F 75% 29.81 in 3.0 mi North 12.7 mph 17.3 mph N/A   Overcast
3:15 PM 26.6 °F 13.1 °F 21.2 °F 80% 29.83 in 0.5 mi North 19.6 mph 24.2 mph N/A   Overcast
3:35 PM 23.0 °F 11.1 °F 19.4 °F 86% 29.84 in 0.5 mi North 12.7 mph - N/A   Overcast
3:55 PM 21.2 °F 6.8 °F 17.6 °F 86% 29.87 in 1.8 mi North 17.3 mph - N/A   Overcast
4:15 PM 19.4 °F 4.5 °F 15.8 °F 86% 29.88 in 1.2 mi North 17.3 mph - N/A   Overcast
4:35 PM 19.4 °F 5.0 °F 15.8 °F 86% 29.90 in 1.8 mi North 16.1 mph - N/A   Mostly Cloudy
4:55 PM 17.6 °F 1.3 °F 14.0 °F 86% 29.92 in 1.0 mi North 19.6 mph - N/A   Overcast
5:15 PM 17.6 °F 3.2 °F 14.0 °F 86% 29.95 in 1.5 mi NNW 15.0 mph - N/A   Overcast
5:35 PM 15.8 °F 0.9 °F 10.4 °F 79% 29.97 in 5.0 mi NNW 15.0 mph 19.6 mph N/A   Overcast
5:55 PM 15.8 °F 3.4 °F 10.4 °F 79% 30.00 in 10.0 mi NW 10.4 mph - N/A   Overcast
6:15 PM 15.8 °F 2.7 °F 8.6 °F 73% 30.01 in 10.0 mi North 11.5 mph - N/A   Mostly Cloudy
6:35 PM 14.0 °F -1.4 °F 6.8 °F 73% 30.03 in 10.0 mi North 15.0 mph - N/A   Mostly Cloudy
6:55 PM 14.0 °F 2.0 °F 6.8 °F 73% 30.05 in 10.0 mi NNW 9.2 mph - N/A   Mostly Cloudy
7:15 PM 12.2 °F -1.0 °F 5.0 °F 73% 30.06 in 10.0 mi NNW 10.4 mph - N/A   Partly Cloudy
7:35 PM 12.2 °F -1.8 °F 3.2 °F 67% 30.05 in 10.0 mi North 11.5 mph - N/A   Clear
7:55 PM 10.4 °F -3.3 °F 3.2 °F 73% 30.06 in 10.0 mi North 10.4 mph - N/A   Scattered Clouds
8:15 PM 8.6 °F -3.7 °F -0.4 °F 67% 30.07 in 10.0 mi North 8.1 mph - N/A   Clear
8:35 PM 5.0 °F -5.6 °F -2.2 °F 72% 30.09 in 10.0 mi NNW 5.8 mph - N/A   Clear
8:55 PM 1.4 °F -6.2 °F 1.4 °F 100% 30.09 in 10.0 mi North 3.5 mph - N/A   Clear
9:15 PM 1.4 °F -8.3 °F -5.8 °F 72% 30.10 in 10.0 mi NW 4.6 mph - N/A   Clear
9:35 PM -2.2 °F -15.6 °F -7.6 °F 78% 30.10 in 10.0 mi NW 6.9 mph - N/A   Clear
9:55 PM -4.0 °F -17.8 °F -7.6 °F 85% 30.11 in 10.0 mi NW 6.9 mph - N/A   Clear
10:15 PM -2.2 °F -10.4 °F -7.6 °F 78% 30.11 in 10.0 mi NNW 3.5 mph - N/A   Partly Cloudy
10:35 PM -2.2 °F -12.5 °F -2.2 °F 100% 30.09 in 10.0 mi North 4.6 mph - N/A   Clear
10:55 PM -4.0 °F -12.4 °F -14.8 °F 60% 30.11 in 10.0 mi NW 3.5 mph - N/A   Clear
11:15 PM -5.8 °F - -7.6 °F 92% 30.10 in 10.0 mi Calm Calm - N/A   Clear
11:35 PM -5.8 °F -19.9 °F -9.4 °F 84% 30.10 in 10.0 mi West 6.9 mph - N/A   Clear
11:55 PM -4.0 °F -12.4 °F -5.8 °F 92% 30.10 in 10.0 mi WSW 3.5 mph - N/A   Clear